TimeCDT,TemperatureF,Dew PointF,Humidity,Sea Level PressureIn,VisibilityMPH,Wind Direction,Wind SpeedMPH,Gust SpeedMPH,PrecipitationIn,Events,Conditions,WindDirDegrees,DateUTC
12:15 AM,57.6,43.0,58,30.05,10.0,WSW,4.6,-,N/A,,Clear,240,2013-05-11 05:15:00
12:35 AM,55.9,43.0,62,30.05,10.0,SW,4.6,-,N/A,,Clear,230,2013-05-11 05:35:00
12:55 AM,55.6,43.0,63,30.04,10.0,SW,5.8,-,N/A,,Clear,220,2013-05-11 05:55:00
1:15 AM,55.8,43.2,63,30.04,10.0,SW,5.8,-,N/A,,Clear,220,2013-05-11 06:15:00
1:35 AM,54.9,43.3,65,30.04,10.0,SW,4.6,-,N/A,,Clear,230,2013-05-11 06:35:00
1:55 AM,54.9,43.7,66,30.04,10.0,WSW,4.6,-,N/A,,Clear,250,2013-05-11 06:55:00
2:15 AM,54.9,43.7,66,30.03,10.0,WSW,5.8,-,N/A,,Clear,240,2013-05-11 07:15:00
2:35 AM,54.1,43.9,68,30.03,10.0,WSW,6.9,-,N/A,,Clear,250,2013-05-11 07:35:00
2:55 AM,53.6,43.7,69,30.04,10.0,Calm,Calm,-,N/A,,Clear,0,2013-05-11 07:55:00
3:15 AM,53.6,44.6,72,30.04,10.0,West,5.8,-,N/A,,Mostly Cloudy,270,2013-05-11 08:15:00
3:35 AM,55.2,45.1,69,30.06,10.0,NW,13.8,21.9,N/A,,Scattered Clouds,310,2013-05-11 08:35:00
3:55 AM,54.7,45.5,71,30.07,10.0,NW,16.1,21.9,N/A,,Clear,320,2013-05-11 08:55:00
4:15 AM,55.8,44.4,66,30.08,10.0,NNW,12.7,-,N/A,,Clear,340,2013-05-11 09:15:00
4:35 AM,56.1,41.4,58,30.10,10.0,North,12.7,20.7,N/A,,Clear,350,2013-05-11 09:35:00
4:55 AM,55.4,38.3,53,30.11,10.0,North,17.3,23.0,N/A,,Clear,350,2013-05-11 09:55:00
5:15 AM,54.7,35.2,48,30.12,10.0,North,12.7,21.9,N/A,,Clear,350,2013-05-11 10:15:00
5:35 AM,53.2,31.6,44,30.13,10.0,North,15.0,20.7,N/A,,Clear,350,2013-05-11 10:35:00
5:55 AM,52.0,30.9,45,30.15,10.0,North,11.5,18.4,N/A,,Clear,350,2013-05-11 10:55:00
6:15 AM,51.4,30.7,45,30.16,10.0,North,8.1,16.1,N/A,,Clear,350,2013-05-11 11:15:00
6:35 AM,50.9,30.9,46,30.16,10.0,NNW,10.4,-,N/A,,Clear,340,2013-05-11 11:35:00
6:55 AM,50.7,32.0,49,30.18,10.0,NNW,10.4,-,N/A,,Clear,340,2013-05-11 11:55:00
7:15 AM,51.3,32.0,48,30.18,10.0,NNW,10.4,-,N/A,,Clear,340,2013-05-11 12:15:00
7:35 AM,51.6,33.8,51,30.19,10.0,NNW,10.4,17.3,N/A,,Clear,330,2013-05-11 12:35:00
7:55 AM,52.3,32.2,46,30.20,10.0,NNW,15.0,18.4,N/A,,Clear,330,2013-05-11 12:55:00
8:15 AM,53.2,31.1,43,30.21,10.0,NNW,15.0,21.9,N/A,,Clear,340,2013-05-11 13:15:00
8:35 AM,54.3,28.6,37,30.21,10.0,North,16.1,23.0,N/A,,Clear,350,2013-05-11 13:35:00
8:55 AM,54.5,26.6,34,30.22,10.0,North,17.3,25.3,N/A,,Clear,350,2013-05-11 13:55:00
9:15 AM,55.0,27.3,34,30.23,10.0,NNW,17.3,26.5,N/A,,Clear,340,2013-05-11 14:15:00
9:35 AM,55.6,27.7,34,30.23,10.0,NNW,17.3,26.5,N/A,,Clear,340,2013-05-11 14:35:00
9:55 AM,55.9,26.6,32,30.24,10.0,North,17.3,29.9,N/A,,Clear,360,2013-05-11 14:55:00
10:15 AM,57.0,25.7,30,30.23,10.0,NNW,18.4,26.5,N/A,,Clear,340,2013-05-11 15:15:00
10:35 AM,57.9,26.2,30,30.24,10.0,NNW,21.9,31.1,N/A,,Clear,340,2013-05-11 15:35:00
10:55 AM,58.6,24.4,27,30.23,10.0,NNW,20.7,29.9,N/A,,Clear,340,2013-05-11 15:55:00
11:15 AM,58.8,25.3,28,30.24,10.0,North,20.7,32.2,N/A,,Clear,350,2013-05-11 16:15:00
11:35 AM,59.5,25.2,27,30.24,10.0,NW,26.5,33.4,N/A,,Clear,320,2013-05-11 16:35:00
11:55 AM,59.7,25.5,27,30.24,10.0,NNW,17.3,29.9,N/A,,Clear,340,2013-05-11 16:55:00
12:15 PM,60.3,26.2,27,30.24,10.0,NNW,21.9,31.1,N/A,,Clear,330,2013-05-11 17:15:00
12:35 PM,60.6,25.2,26,30.24,10.0,NW,24.2,32.2,N/A,,Clear,320,2013-05-11 17:35:00
12:55 PM,61.3,25.2,25,30.24,10.0,NNW,25.3,29.9,N/A,,Clear,340,2013-05-11 17:55:00
1:15 PM,60.4,25.3,26,30.24,10.0,NNW,18.4,31.1,N/A,,Clear,340,2013-05-11 18:15:00
1:35 PM,61.2,27.0,27,30.24,10.0,NW,23.0,31.1,N/A,,Clear,320,2013-05-11 18:35:00
1:55 PM,61.7,25.0,25,30.24,10.0,NNW,20.7,32.2,N/A,,Clear,340,2013-05-11 18:55:00
2:15 PM,61.0,24.3,25,30.24,10.0,NNW,19.6,27.6,N/A,,Clear,330,2013-05-11 19:15:00
2:35 PM,61.2,22.3,22,30.24,10.0,NNW,24.2,32.2,N/A,,Clear,330,2013-05-11 19:35:00
2:55 PM,61.2,22.3,22,30.24,10.0,NW,23.0,32.2,N/A,,Clear,320,2013-05-11 19:55:00
3:15 PM,61.3,22.6,23,30.24,10.0,NNW,21.9,32.2,N/A,,Clear,330,2013-05-11 20:15:00
3:35 PM,60.8,21.6,22,30.24,10.0,NNW,24.2,32.2,N/A,,Clear,330,2013-05-11 20:35:00
3:55 PM,60.6,19.9,21,30.23,10.0,NNW,21.9,34.5,N/A,,Clear,330,2013-05-11 20:55:00
4:15 PM,61.5,21.0,21,30.23,10.0,NNW,21.9,33.4,N/A,,Clear,330,2013-05-11 21:15:00
4:35 PM,61.2,20.8,21,30.23,10.0,NNW,15.0,27.6,N/A,,Clear,340,2013-05-11 21:35:00
4:55 PM,60.4,20.8,22,30.23,10.0,NW,17.3,29.9,N/A,,Clear,310,2013-05-11 21:55:00
5:15 PM,60.4,19.8,21,30.23,10.0,NNW,18.4,31.1,N/A,,Clear,330,2013-05-11 22:15:00
5:35 PM,59.9,19.4,21,30.23,10.0,NW,23.0,27.6,N/A,,Clear,320,2013-05-11 22:35:00
5:55 PM,59.7,19.2,21,30.24,10.0,NW,20.7,26.5,N/A,,Clear,320,2013-05-11 22:55:00
6:15 PM,59.2,19.0,21,30.23,10.0,NNW,17.3,25.3,N/A,,Clear,340,2013-05-11 23:15:00
6:35 PM,58.3,19.0,22,30.23,10.0,NNW,16.1,20.7,N/A,,Clear,340,2013-05-11 23:35:00
6:55 PM,58.3,21.9,25,30.23,10.0,NNW,17.3,23.0,N/A,,Clear,330,2013-05-11 23:55:00
7:15 PM,57.4,21.2,25,30.23,10.0,NNW,15.0,20.7,N/A,,Clear,330,2013-05-12 00:15:00
7:35 PM,56.7,21.7,26,30.24,10.0,NW,12.7,-,N/A,,Clear,320,2013-05-12 00:35:00
7:55 PM,55.6,21.4,26,30.24,10.0,NW,13.8,18.4,N/A,,Clear,320,2013-05-12 00:55:00
8:15 PM,54.3,21.6,28,30.24,10.0,NNW,10.4,-,N/A,,Clear,330,2013-05-12 01:15:00
8:35 PM,52.9,21.9,30,30.24,10.0,NNW,9.2,-,N/A,,Clear,330,2013-05-12 01:35:00
9:15 PM,48.0,24.6,40,30.25,10.0,NW,5.8,-,N/A,,Clear,310,2013-05-12 02:15:00
9:35 PM,46.9,24.6,42,30.25,10.0,NW,5.8,-,N/A,,Clear,310,2013-05-12 02:35:00
9:55 PM,46.0,25.0,44,30.25,10.0,WNW,3.5,-,N/A,,Clear,300,2013-05-12 02:55:00
10:15 PM,46.8,24.3,41,30.25,10.0,NNW,4.6,-,N/A,,Clear,330,2013-05-12 03:15:00
10:35 PM,47.5,24.3,40,30.25,10.0,NW,4.6,-,N/A,,Clear,320,2013-05-12 03:35:00
11:15 PM,46.2,24.6,43,30.25,10.0,NW,3.5,-,N/A,,Clear,310,2013-05-12 04:15:00
11:35 PM,45.9,24.8,44,30.25,10.0,Calm,Calm,-,N/A,,Clear,0,2013-05-12 04:35:00
11:55 PM,46.4,24.4,42,30.25,10.0,NW,3.5,-,N/A,,Clear,310,2013-05-12 04:55:00